Regional Weather Roundup
Issued by NWS

Home | Current Version | Previous Version | Graphics & Text | Print | Product List | Glossary On
Versions: 1 2 3 4 5 6 7 8 9 10 11 12 13 14 15 16 17 18 19 20 21 22 23 24 25 26 27 28 29 30 31 32 33 34 35 36 37 38 39 40 41 42 43 44 45 46 47 48 49 50
000
ASUS45 KCYS 220010
RWRWY

WYOMING REGIONAL WEATHER ROUNDUP
NATIONAL WEATHER SERVICE CHEYENNE WY
500 PM MST WED FEB 21 2018

NOTE:  "FAIR" INDICATES FEW OR NO CLOUDS BELOW 12,000 FEET
WITH NO SIGNIFICANT WEATHER AND/OR OBSTRUCTIONS TO VISIBILITY.

WYZ001-220100-
YELLOWSTONE NATIONAL PARK

CITY           SKY/WX    TMP DP  RH WIND       PRES   REMARKS
LK YELLOWSTONE   N/A      9   0  67 VRB5      29.93S WCI   1
6HR MIN TEMP:   0; 6HR MAX TEMP:  13;

W YELLOWSTONE  NOT AVBL

$$
WYZ002>013-054>058-071-098>099-220100-
NORTHERN WYOMING

CITY           SKY/WX    TMP DP  RH WIND       PRES   REMARKS
JACKSON        CLOUDY    16   3  56 S12       29.99F WCI   3
CODY           FAIR      14   1  56 S9        30.02F WCI   2
GREYBULL       FAIR       2  -4  76 CALM      30.10F
6HR MIN TEMP: -11; 6HR MAX TEMP:   7;

WORLAND        FAIR      12   2  64 E5        30.07F WCI   4
6HR MIN TEMP:  -5; 6HR MAX TEMP:  15; 6HR PCP: TRACE;

SHERIDAN       FAIR       5  -4  66 S3        30.08S
6HR MIN TEMP:   0; 6HR MAX TEMP:  10; 6HR PCP: TRACE;

BUFFALO        FAIR      14   1  56 S5        30.02S WCI   6
6HR MIN TEMP:  10; 6HR MAX TEMP:  18; 6HR PCP: TRACE;

GILLETTE       FAIR      13   3  64 S9        30.08F WCI   1
6HR MIN TEMP:   9; 6HR MAX TEMP:  19;

HULETT         FAIR      19   1  45 SW10      30.12S WCI   8
NEWCASTLE      FAIR       3  -4  72 CALM      30.17F

$$
WYZ014>020-022>026-101>103-220100-
CENTRAL WYOMING

CITY           SKY/WX    TMP DP  RH WIND       PRES   REMARKS
BIG PINEY      FAIR      12   2  64 CALM      30.02F
6HR MIN TEMP:  -2; 6HR MAX TEMP:  14;

PINEDALE       FAIR      12  -4  48 CALM      30.01F
DUBOIS           N/A    N/A N/A N/A MISG        N/A
LANDER         FAIR       9   0  67 N5        30.03F WCI   1
6HR MIN TEMP:  -3; 6HR MAX TEMP:  14;

RIVERTON       FAIR       7  -5  57 N5        30.04F WCI  -2
6HR MIN TEMP:  -5; 6HR MAX TEMP:   8;

CASPER         FAIR      16   6  65 SW16      30.06F WCI   1
6HR MIN TEMP:  13; 6HR MAX TEMP:  18;

DOUGLAS        FAIR      10   5  80 CALM      30.12S
6HR MIN TEMP:  -4; 6HR MAX TEMP:  18;


$$
WYZ021-027>030-104>119-220100-
SOUTHERN WYOMING

CITY           SKY/WX    TMP DP  RH WIND       PRES   REMARKS
EVANSTON       FAIR      12   3  67 E8        29.98F WCI   0
6HR MIN TEMP:   7; 6HR MAX TEMP:  19;

ROCK SPRINGS   FAIR      14   3  61 SW3       30.04S
6HR MIN TEMP:   1; 6HR MAX TEMP:  17;

DIXON          MOCLDY    17   7  64 SE3       30.07F
RAWLINS        FAIR      16   7  67 NW6       30.03S WCI   7
6HR MIN TEMP:  12; 6HR MAX TEMP:  18;

SARATOGA       FAIR      19   5  53 CALM      30.03S
LARAMIE        FAIR      14   7  73 N9        30.00R WCI   2
6HR MIN TEMP:  14; 6HR MAX TEMP:  24; 6HR PCP: TRACE;

CHEYENNE       FAIR      18  11  74 S9        30.07S WCI   7
6HR MIN TEMP:  17; 6HR MAX TEMP:  25;

TORRINGTON     FAIR      26  13  57 SE15      30.15S WCI  14
6HR MIN TEMP:  16; 6HR MAX TEMP:  32;

PINE BLUFFS    FAIR      19  10  68 MISG      30.14F

$$



USA.gov is the U.S. government's official web portal to all federal, state and local government web resources and services.